Date,TemperatureHighF,TemperatureAvgF,TemperatureLowF,DewpointHighF,DewpointAvgF,DewpointLowF,HumidityHigh,HumidityAvg,HumidityLow,PressureMaxIn,PressureMinIn,WindSpeedMaxMPH,WindSpeedAvgMPH,GustSpeedMaxMPH,PrecipitationSumIn
2013-11-1,74,62,45,52,45,36,97,59,25,0.00,40.00,6,1,0,0.00
2013-11-2,61,54,42,43,35,-100,92,52,34,0.00,40.00,9,5,0,0.00
2013-11-3,63,53,42,43,40,36,94,65,42,0.00,40.00,3,2,0,0.00
2013-11-4,55,53,50,54,49,43,98,87,72,0.00,40.00,2,1,0,0.19
2013-11-5,64,60,55,64,59,54,99,97,93,0.00,40.00,2,1,0,2.31
2013-11-6,67,56,46,67,53,39,99,87,70,0.00,40.00,9,6,0,2.21
2013-11-7,61,49,34,46,40,33,99,73,38,0.00,40.00,3,1,0,0.00
2013-11-8,64,57,50,47,43,38,82,61,38,0.00,40.00,3,2,0,0.00
2013-11-9,55,51,49,50,46,-100,93,86,77,0.00,40.00,2,1,0,0.02
2013-11-10,67,58,51,52,49,45,98,75,46,0.00,40.00,2,1,0,0.02
2013-11-11,69,58,49,55,50,46,93,75,49,0.00,40.00,1,0,0,0.00
2013-11-12,60,49,41,55,36,23,89,63,38,0.00,40.00,10,4,0,0.00
2013-11-13,50,37,26,28,22,15,96,62,25,0.00,40.00,4,1,0,0.00
2013-11-14,54,40,25,38,28,22,95,66,36,0.00,40.00,3,2,0,0.01
2013-11-15,57,48,43,56,46,35,99,93,66,0.00,40.00,2,1,0,0.05
2013-11-16,70,61,57,68,58,-100,99,93,81,0.00,40.00,4,2,0,0.01
2013-11-17,83,73,65,68,56,38,90,60,25,0.00,40.00,7,3,0,0.01
2013-11-18,68,61,46,36,31,24,58,34,22,0.00,40.00,4,1,0,0.00
2013-11-19,59,54,49,37,28,21,51,38,23,0.00,40.00,1,0,0,0.00
2013-11-20,61,52,42,38,32,30,64,48,32,0.00,40.00,3,2,0,0.00
2013-11-21,60,57,52,60,52,38,99,84,48,0.00,40.00,3,0,0,1.06
2013-11-22,55,44,42,52,42,38,97,92,86,0.00,40.00,6,4,0,1.41
2013-11-23,47,42,39,40,32,-100,96,72,46,0.00,40.00,4,1,0,0.36
2013-11-24,39,35,32,28,20,11,78,57,38,0.00,40.00,1,1,0,0.02
2013-11-25,37,33,30,36,30,23,99,91,69,0.00,40.00,3,1,0,0.03
2013-11-26,48,41,36,36,32,26,94,73,52,0.00,40.00,10,6,0,0.01
2013-11-27,43,35,27,26,20,12,86,55,30,0.00,40.00,9,4,0,0.00
2013-11-28,49,35,23,31,25,20,96,72,31,0.00,40.00,3,1,0,0.00
2013-11-29,54,44,33,35,30,25,92,63,34,0.00,40.00,2,1,0,0.00
2013-11-30,62,46,29,47,36,-100,98,75,48,0.00,40.00,4,2,0,0.00